This demonstration page uses our WeatherBlox Daily Observations layout. Learn more.

Left ArrowRight Arrow

34.74481, -87.66753

Hourly Observations for March 19, 2018

Temp ( °F °C ) Dew Point ( °F °C ) Humidity (%) Winds ( mph kmh ) Pressure ( in mb ) Visibility ( mi km ) Precip ( " mm )
12:53 am 00:53 Mostly Cloudy 53 11.7 49 9.4 86 86 E 5 7 29.82 1010 9 14 0.00 0.03
1:53 am 01:53 Cloudy 53 11.7 49 9.4 86 86 E 6 9 29.80 1009 8 13 0.00 0.00
2:53 am 02:53 Cloudy 54 12.2 50 10 87 87 SSW 3 6 29.80 1009 8 13 0.00 0.00
3:02 am 03:02 Cloudy 54 12.2 50 10 87 87 S 3 6 29.83 1010 7 11 0.00 0.00
3:53 am 03:53 Cloudy 54 12.2 50 10 87 87 E 3 6 29.76 1008 8 13 0.00 0.00
4:53 am 04:53 Cloudy 54 12.2 50 10 87 87 SE 3 6 29.74 1007 7 11 0.00 0.00
5:39 am 05:39 Cloudy with Mist and Fog 55 12.8 51 10.6 87 87 E 5 7 29.77 1008 5 8 0.00 0.00
5:53 am 05:53 Cloudy with Mist and Fog 55 12.8 51 10.6 87 87 E 3 6 29.72 1006 6 10 0.00 0.00
6:53 am 06:53 Cloudy with Mist and Fog 55 12.8 51 10.6 87 87 SE 8 13 29.70 1006 5 8 0.00 0.00
7:19 am 07:19 Cloudy with Nearby Thunderstorms 55 12.8 51 10.6 87 87 N 7 11 29.77 1008 4 6 0.02 0.51
7:34 am 07:34 Cloudy with Light Rain 54 12.2 51 10.6 90 90 NE 8 13 29.77 1008 7 11 0.02 0.51
7:53 am 07:53 Cloudy 55 12.8 51 10.6 87 87 N 5 7 29.74 1007 8 13 0.02 0.51
8:53 am 08:53 Cloudy 58 14.4 53 11.7 84 84 ESE 8 13 29.70 1006 9 14 0.00 0.00
9:53 am 09:53 Cloudy with Haze 59 15 54 12.2 83 83 ESE 5 7 29.71 1006 6 10 0.00 0.00
10:06 am 10:06 Cloudy with Haze 59 15 54 12.2 83 83 ESE 3 6 29.74 1007 6 10 0.00 0.00
10:53 am 10:53 Cloudy with Mist and Fog 59 15 55 12.8 87 87 ESE 7 11 29.71 1006 4 6 0.00 0.00
11:53 am 11:53 Cloudy with Mist and Fog 60 15.6 57 13.9 90 90 E 8 13 29.70 1006 4 6 0.00 0.00
12:21 pm 12:21 Cloudy with Thunderstorms 60 15.6 57 13.9 90 90 SE 8 13 29.71 1006 3 5 0.00 0.00
12:48 pm 12:48 Cloudy with Nearby Thunderstorms 61 16 57 14 88 88 E 6 9 29.68 1005 3 5 0.02 0.51
12:53 pm 12:53 Cloudy with Nearby Thunderstorms 60 15.6 57 13.9 90 90 E 5 7 29.68 1005 3 5 0.02 0.51
1:14 pm 13:14 Cloudy with Nearby Thunderstorms 60 15.6 57 13.9 90 90 E 8 13 29.65 1004 3 4 0.00 0.03
1:29 pm 13:29 Cloudy with Thunderstorms 60 15.6 57 13.9 90 90 NNE 6 9 29.65 1004 3 4 0.02 0.51
1:32 pm 13:32 Cloudy with Strong Thunderstorms 60 15.6 57 13.9 90 90 NE 6 9 29.65 1004 2 3 0.06 1.52
1:40 pm 13:40 Cloudy with Strong Thunderstorms 60 15.6 57 13.9 90 90 E 8 13 29.65 1004 0 0 0.30 7.62
1:51 pm 13:51 Cloudy with Strong Thunderstorms 61 16 59 15 94 94 VRB 6 9 29.62 1003 1 1 0.86 21.84
1:53 pm 13:53 Cloudy with Thunderstorms 61 16.1 59 15 93 93 NE 9 15 29.62 1003 1 1 0.86 21.84
1:59 pm 13:59 Cloudy with Thunderstorms 61 16.1 58 14.4 90 90 NE 7 11 29.62 1003 2 3 0.00 0.03
2:05 pm 14:05 Cloudy with Nearby Thunderstorms 61 16.1 58 14.4 90 90 E 8 13 29.62 1003 4 6 0.00 0.03
2:14 pm 14:14 Cloudy with Nearby Thunderstorms 62 16.7 59 15 90 90 ESE 10 17 29.59 1002 6 10 0.00 0.03
2:21 pm 14:21 Cloudy 62 16.7 59 15 90 90 ESE 7 11 29.59 1002 7 11 0.00 0.03
2:37 pm 14:37 Cloudy 63 17.2 60 15.6 90 90 E 7 11 29.59 1002 8 13 0.00 0.03
2:53 pm 14:53 Cloudy 63 17.2 60 15.6 90 90 SSE 8 13 29.57 1001 7 11 0.00 0.03
3:01 pm 15:01 Cloudy with Mist and Fog 64 17.8 60 15.6 87 87 WSW 5 7 29.56 1001 6 10 0.00 0.00
3:21 pm 15:21 Hazy 66 18.9 61 16.1 84 84 ESE 12 19 29.53 1000 6 10 0.00 0.00
3:29 pm 15:29 Partly Cloudy with Mist and Fog 66 18.9 62 16.7 87 87 SE 10 17 29.53 1000 6 10 0.00 0.00
3:53 pm 15:53 Mostly Sunny 68 20 62 16.7 81 81 VRB 6 9 29.52 1000 8 13 0.00 0.00
4:53 pm 16:53 Mostly Sunny 66 18.9 62 16.7 87 87 E 6 9 29.47 998 7 11 0.00 0.00
5:25 pm 17:25 Cloudy with Nearby Thunderstorms 66 18.9 63 17.2 90 90 SSE 9 15 29.44 997 4 6 0.03 0.76
5:46 pm 17:46 Cloudy with Nearby Thunderstorms 68 20 63 17.2 84 84 WSW 16 26 29.50 999 2 3 0.13 3.30
5:53 pm 17:53 Cloudy with Nearby Thunderstorms 67 19.4 60 15.6 79 79 WSW 16 26 29.48 998 2 3 0.14 3.56
6:01 pm 18:01 Mostly Cloudy with Nearby Thunderstorms 67 19.4 61 16.1 81 81 SW 8 13 29.50 999 10 16 0.00 0.03
6:29 pm 18:29 Mostly Cloudy 66 18.9 62 16.7 87 87 NNW 5 7 29.50 999 10 16 0.00 0.03
6:53 pm 18:53 Partly Cloudy 66 18.9 62 16.7 87 87 Calm 29.49 999 10 16 0.00 0.03
7:53 pm 19:53 Clear 62 16.7 59 15 90 90 W 3 6 29.51 999 9 14 0.00 0.00
8:53 pm 20:53 Clear 60 15.6 59 15 96 96 Calm 29.53 1000 7 11 0.00 0.00
9:53 pm 21:53 Clear 59 15 56 13.3 90 90 WSW 3 6 29.54 1000 10 16 0.00 0.00
10:41 pm 22:41 Clear with Mist and Fog 57 13.9 55 12.8 93 93 W 3 6 29.56 1001 3 4 0.00 0.00
10:49 pm 22:49 Clear with Mist and Fog 57 14 55 13 94 94 Calm 29.56 1001 6 10 0.00 0.00
10:53 pm 22:53 Clear with Mist and Fog 58 14.4 55 12.8 90 90 Calm 29.55 1001 6 10 0.00 0.00
11:05 pm 23:05 Clear with Mist and Fog 57 13.9 54 12.2 90 90 Calm 29.56 1001 2 2 0.00 0.00
11:12 pm 23:12 Mostly Cloudy with Fog 57 13.9 55 12.8 93 93 Calm 29.56 1001 1 1 0.00 0.00
11:20 pm 23:20 Mostly Cloudy with Fog 56 13.3 54 12.2 93 93 Calm 29.56 1001 0 0 0.00 0.00
11:27 pm 23:27 Mostly Cloudy with Fog 56 13.3 53 11.7 90 90 NW 5 7 29.56 1001 1 1 0.00 0.00
11:36 pm 23:36 Mostly Clear with Mist and Fog 55 12.8 52 11.1 90 90 NW 5 7 29.56 1001 1 2 0.00 0.00
11:41 pm 23:41 Mostly Clear with Mist and Fog 55 12.8 53 11.7 93 93 NW 6 9 29.59 1002 4 6 0.00 0.00
11:53 pm 23:53 Clear 56 13.3 54 12.2 93 93 NW 6 9 29.57 1001 10 16 0.00 0.00

Powered by AerisWeather